Regional Weather Roundup
Issued by NWS

Home | Current Version | Previous Version | Text Only | Print | Product List | Glossary Off
Versions: 1 2 3 4 5 6 7 8 9 10 11 12 13 14 15 16 17 18 19 20 21 22 23 24 25 26 27 28 29 30 31 32 33 34 35 36 37 38 39 40 41 42 43 44 45 46 47 48 49 50

000
ASUS45 KABQ 041610
RWRNM
WEATHER ROUNDUP FOR NEW MEXICO
NATIONAL WEATHER SERVICE ALBUQUERQUE NM
900 AM MST WED MAR 04 2015

NOTE: "FAIR" MEANS FEW OR NO CLOUDS BELOW 12,000 FEET AGL WITH NO
       SIGNIFICANT WEATHER OR OBSTRUCTIONS TO VISION.

      THIS PRODUCT IS RELEASED AS TWO VERSIONS.  ONE VERSION NEAR
      THE TOP OF THE HOUR CONTAINING PRELIMINARY DATA FROM ALBUQUERQUE
      AND OTHER STATIONS.  A FINAL VERSION WITH ADDITIONAL DATA IS
      ISSUED ABOUT 10 MINUTES AFTER THE HOUR.

NMZ501-503-504-510>518-041700-
NORTHWEST PLATEAU/NORTHCENTRAL MOUNTAINS

CITY           SKY/WX    TMP DP  RH WIND       PRES   REMARKS
FARMINGTON     MOSUNNY   34  28  79 W13       29.98R WCI  25
SANTA FE       SUNNY     36  25  64 CALM      29.93R
TAOS           MOSUNNY   30  21  69 NW5       29.93R WCI  25
ANGEL FIRE     PTSUNNY   26  16  64 SE5       29.90R WCI  21

$$
NMZ402-403-502-505>509-041700-
WESTCENTRAL MOUNTAINS/SOUTHWEST MOUNTAINS

CITY           SKY/WX    TMP DP  RH WIND       PRES   REMARKS
GALLUP         MOSUNNY   30  27  88 CALM      30.00R
SILVER CITY    MOSUNNY   46  28  49 NW8       29.96R

$$
NMZ407-409-411-412-041700-
SOUTHERN DESERTS

CITY           SKY/WX    TMP DP  RH WIND       PRES   REMARKS
DEMING         SUNNY     44  32  62 W7        29.95R
ALAMOGORDO     MOSUNNY   52  41  66 S10       29.93R
T OR C         MOSUNNY   46  27  47 N5        29.94R

$$
NMZ519>523-041700-
CENTRAL VALLEYS/CENTRAL HIGHLANDS

CITY           SKY/WX    TMP DP  RH WIND       PRES   REMARKS
ALBUQUERQUE    MOSUNNY   41  27  57 N8        29.97R
DOUBLE EAGLE   MOSUNNY   37  25  60 CALM      29.97R
MORIARTY ARPT  FAIR      39  24  55 NW8       29.95R WCI  34
CLINES CORNERS SUNNY     35  24  64 NW12      29.91R WCI  27
BELEN          PTSUNNY   42  28  57 CALM      29.97R
SOCORRO        NOT AVBL

$$
NMZ524>526-539-540-041700-
SOUTHCENTRAL MOUNTAINS

CITY           SKY/WX    TMP DP  RH WIND       PRES   REMARKS
RUIDOSO        NOT AVBL

$$
NMZ527>531-041700-
NORTHEAST HIGHLANDS/NORTHEAST PLAINS

CITY           SKY/WX    TMP DP  RH WIND       PRES   REMARKS
LAS VEGAS      CLOUDY    27  25  92 S6        29.93R FOG     WCI  20
RATON          LGT SNOW  26  22  84 NE12      29.95R FOG     WCI  16
CLAYTON        LGT SNOW  18  15  88 NE16      30.10R FOG     WCI   3

$$
NMZ532>537-041700-
EASTCENTRAL PLAINS

CITY           SKY/WX    TMP DP  RH WIND       PRES   REMARKS
TUCUMCARI      CLOUDY    26  24  92 NE17G28   30.07R FOG     WCI  13
CANNON AFB     FRZ DRZL  28  28 100 NE21      30.00R FOG     WCI  15
CLOVIS AIRPORT CLOUDY    27  25  93 NE23      30.02R WCI  12

$$
NMZ028-029-538-041700-
SOUTHEAST PLAINS

CITY           SKY/WX    TMP DP  RH WIND       PRES   REMARKS
ROSWELL        PTSUNNY   42  36  79 N17       29.96R
ARTESIA        CLOUDY    43  41  93 N16       29.95R
CARLSBAD       CLOUDY    52  44  74 S8        29.90R
HOBBS          LGT RAIN  48  48 100 CALM      29.95R


$$


USA.gov is the U.S. government's official web portal to all federal, state and local government web resources and services.